2019-093B (44880 NORAD) Tracking and Keplerian Element Data

This shows tracking and keplerian element data for the satellite.

Feedback or suggestion? Click here.




ElementValue
Catalog44880
Name2019-093B
Epoch Orbit429
Epoch Day18.16339842
Epoch Year2020
RAAN95.1244
Inclination97.9741
Eccentricity0.0015774
Argument of Perigee164.5868
Mean Anonmoly195.5844
Mean Motion14.81361679
Decay Rate1.43E-06
L11 44880U 19093B 20018.16339842 .00000143 00000-0 25153-4 0 9991
L22 44880 97.9741 95.1244 0015774 164.5868 195.5844 14.81361679 4297

Live tracking and technical data element details for 2019-093B (NORAD 44880). 2019-093B can be tracked NOW for your location showing map with azimuth and elevation plus other details from your city location.

Track the satellite on the map from your city or location and see movement details for azimuth, elevation, latitude, longitude, range, height, and movement on the map or in text.







IsCatalogInMostPopularTable: catalog: 44880, numindb: 6
Update: records affected: 1



GetName: 44880 2019-093B

Hit Count: updated at: Mon, 20 Jan 2020 04:21:40 GMT